Trinidad, CO

9:52 AM MDT on May 25, 2018 (GMT -0600)
Stokes

Weather History for KTAD - June, 2013

Change the Weather History Date:

Tuesday, June 4, 2013

  Actual Average Record
Temperature  
Mean Temperature 71 °F 65 °F  
Max Temperature 89 °F 80 °F 96 °F (1990)
Min Temperature 52 °F 49 °F 39 °F (1950)
Degree Days  
Heating Degree Days 0 3  
Month to date heating degree days 11 12  
Since 1 June heating degree days 11 12  
Since 1 July heating degree days 5447 5507  
Cooling Degree Days 6 3  
Month to date cooling degree days 18 9  
Year to date cooling degree days 81 37  
Since 1 June cooling degree days 18 9  
Growing Degree Days 20 (Base 50)    
Moisture  
Dew Point 33 °F    
Average Humidity 31    
Maximum Humidity 51    
Minimum Humidity 10    
Precipitation  
Precipitation 0.00 in 0.05 in 1.48 in (1978)
Month to date precipitation 0.00 0.21  
Year to date precipitation 1.94 4.73  
Sea Level Pressure  
Sea Level Pressure 29.79 in    
Wind  
Wind Speed 9 mph (NNW)    
Max Wind Speed 29 mph    
Max Gust Speed 39 mph    
Visibility 10 miles    
Events      
T = Trace of Precipitation, MM = Missing Value Source: NWS Daily Summary

Daily Weather History Graph

Daily Weather History Graph

Search for Another Location

Airport or City:

Astronomy

Jun. 04, 2013 Rise Set
Actual Time 5:37 AM MDT 8:14 PM MDT
Civil Twilight 5:06 AM MDT 8:44 PM MDT
Nautical Twilight 4:28 AM MDT 9:22 PM MDT
Astronomical Twilight 3:46 AM MDT 10:05 PM MDT
Moon 3:04 AM MDT (6/4) 4:49 PM MDT (6/4)
Length of Visible Light 15h 37m
Length of Day
14h 36m
Waning Crescent, 14% of the Moon is Illuminated
Jun 4
Waning Crescent
Jun 8
New
Jun 16
First Quarter
Jun 23
Full
Jun 29
Last Quarter

Hourly Weather History & Observations

Time (MDT) Temp. Dew Point Humidity Pressure Visibility Wind Dir Wind Speed Gust Speed Precip Events Conditions
12:54 AM 64.9 °F 25.0 °F 22% 29.67 in 10.0 mi West 10.4 mph - N/A   Clear
1:54 AM 59.0 °F 25.0 °F 27% 29.70 in 10.0 mi West 9.2 mph - N/A   Clear
2:54 AM 55.0 °F 27.0 °F 34% 29.71 in 10.0 mi WNW 8.1 mph - N/A   Clear
3:54 AM 54.0 °F 26.1 °F 34% 29.72 in 10.0 mi West 12.7 mph - N/A   Clear
4:54 AM 53.1 °F 26.1 °F 35% 29.75 in 10.0 mi WSW 8.1 mph - N/A   Clear
5:54 AM 52.0 °F 26.1 °F 37% 29.80 in 10.0 mi WSW 9.2 mph - N/A   Clear
6:54 AM 57.0 °F 28.9 °F 34% 29.83 in 10.0 mi West 9.2 mph - N/A   Clear
7:54 AM 66.9 °F 32.0 °F 27% 29.82 in 10.0 mi West 8.1 mph - N/A   Clear
8:54 AM 73.9 °F 26.1 °F 17% 29.82 in 10.0 mi Variable 6.9 mph - N/A   Clear
9:54 AM 75.9 °F 30.0 °F 19% 29.82 in 10.0 mi East 8.1 mph - N/A   Clear
10:54 AM 79.0 °F 30.9 °F 17% 29.81 in 10.0 mi NE 10.4 mph 18.4 mph N/A   Clear
11:54 AM 79.0 °F 28.9 °F 16% 29.80 in 10.0 mi Variable 5.8 mph - N/A   Clear
12:54 PM 82.0 °F 35.1 °F 18% 29.76 in 10.0 mi East 8.1 mph - N/A   Clear
1:54 PM 87.1 °F 30.9 °F 13% 29.75 in 10.0 mi South 24.2 mph 31.1 mph N/A   Clear
2:54 PM 89.1 °F 26.1 °F 10% 29.71 in 10.0 mi SE 9.2 mph 28.8 mph N/A   Clear
3:54 PM 84.0 °F 26.1 °F 12% 29.72 in 10.0 mi SSE 11.5 mph 24.2 mph N/A   Scattered Clouds
4:54 PM 82.9 °F 26.1 °F 13% 29.74 in 10.0 mi Calm Calm - N/A   Mostly Cloudy
5:54 PM 82.0 °F 27.0 °F 13% 29.73 in 10.0 mi NNW 6.9 mph - N/A   Scattered Clouds
6:52 PM 73.4 °F 41.0 °F 31% 29.97 in 10.0 mi NE 15.0 mph - N/A   Scattered Clouds
6:54 PM 73.9 °F 41.0 °F 30% 29.76 in 10.0 mi ENE 12.7 mph - N/A   Scattered Clouds
7:01 PM 73.4 °F 42.8 °F 33% 29.98 in 10.0 mi East 15.0 mph - N/A   Partly Cloudy
7:54 PM 72.0 °F 43.0 °F 35% 29.78 in 10.0 mi NE 6.9 mph - N/A   Partly Cloudy
8:54 PM 66.9 °F 46.0 °F 47% 29.79 in 10.0 mi NNE 10.4 mph - N/A   Clear
9:54 PM 66.0 °F 45.0 °F 47% 29.83 in 10.0 mi North 10.4 mph - N/A   Clear
10:54 PM 64.9 °F 44.1 °F 47% 29.81 in 10.0 mi Calm Calm - N/A   Scattered Clouds
11:54 PM 60.1 °F 43.0 °F 53% 29.84 in 10.0 mi WNW 3.5 mph - N/A   Clear